Powrót do katalogu

LEMUR-2-FINNIAN

AktywnyNaukaSSO
NORAD 66782·PAYLOAD·🇺🇸 United States

Wystrzelony Nov 28, 2025 z Vandenberg Space Force Base

Loading…

Następne Przeloty (najbliższe 24 godziny)

TLE

ŚwieżeSource: Space-Track

Epoka: Sep 14, 2026, 10:15 UTC

1 66782U 25276DW  26257.42725834  .00003764  00000-0  29912-3 0  9994
2 66782  97.5235 325.6576 0010721 147.8465 212.3416 15.00996672 33383

Śledź LEMUR-2-FINNIAN w czasie rzeczywistym z AllMySat

Download on the App Store